Regional & State Weather Roundups


280 
ASUS44 KOUN 192010
RWROK 
WEATHER ROUNDUP FOR OKLAHOMA
NATIONAL WEATHER SERVICE NORMAN OK
300 PM CDT FRI APR 19 2019
NOTE: "FAIR" INDICATES FEW OR NO CLOUDS BELOW 12,000 FEET WITH NO
      SIGNIFICANT WEATHER AND/OR OBSTRUCTIONS TO VISIBILITY.
OKZ001>007-009>012-014-015-017-192100-
NORTHWEST OKLAHOMA AND THE PANHANDLE
  
CITY           SKY/WX    TMP DP  RH WIND       PRES   REMARKS
GAGE           SUNNY     67  30  25 NW15G22   30.13F                  
GUYMON         SUNNY     70  30  22 NW8       30.11F                  
ENID/WOODRING  MOSUNNY   64  36  34 NW17G24   30.08F                  
$$
OKZ016-021>023-033>039-044-045-192100-
SOUTHWEST OKLAHOMA
  
CITY           SKY/WX    TMP DP  RH WIND       PRES   REMARKS
LAWTON/REGL    SUNNY     67  38  34 NW12G24   30.12F                  
LAWTON/FT SILL MOSUNNY   65  42  43 N16       30.11F                  
FREDERICK      SUNNY     67  39  35 N14       30.10F                  
CLINTON        SUNNY     65  37  35 NW10G23   30.13F                  
HOBART         SUNNY     68  37  32 N8G21     30.13F                  
ALTUS AFB      SUNNY     67  31  26 NW10G21   30.13F                  
$$
OKZ018>020-024>031-192100-
CENTRAL OKLAHOMA
  
CITY           SKY/WX    TMP DP  RH WIND       PRES   REMARKS
OKLAHOMA CITY  MOSUNNY   61  38  42 NW20G31   30.09F                  
OKC/WILEY POST MOSUNNY   63  38  39 NW18G31   30.10F                  
OKC/TINKER AFB SUNNY     64  34  33 NW16G25   30.08S                  
STILLWATER     SUNNY     66  35  31 N21G26    30.07F                  
GUTHRIE        MOSUNNY   63  37  38 NW9G26    30.09F                  
$$
OKZ008-013-054>072-192100-
NORTHEAST OKLAHOMA
  
CITY           SKY/WX    TMP DP  RH WIND       PRES   REMARKS
TULSA          MOSUNNY   66  38  35 NW20G29   30.00F                  
TULSA/JONES    MOSUNNY   66  35  31 N13G22    30.02F                  
PONCA CITY     SUNNY     64  35  34 N16G32    30.06F                  
BARTLESVILLE   SUNNY     66  36  32 VRB3      30.03F                  
MUSKOGEE       MOSUNNY   64  41  42 NW23G32   30.00F                  
$$
OKZ032-040>043-046>053-073>077-192100-
SOUTH CENTRAL/SOUTHEAST OKLAHOMA
  
CITY           SKY/WX    TMP DP  RH WIND       PRES   REMARKS
ARDMORE/DWNTWN MOSUNNY   63  32  31 N10G16    30.08F                  
MCALESTER      SUNNY     66  34  30 NW22G28   30.02F                  
$$